Theta_e
311 312 321 329 333 330 333 336 336 338 337 332 331 331 332 330 332 333 330 329 332 332 332 331 327 323 321 321 320 319 319 318 316 316 316 314 314 312 309 309 309 316 316 314 317 321 323 321 318
312 315 325 331 331 334 338 339 340 336 335 333 332 331 331 331 330 330 333 330 331 330 331 328 325 323 321 320 320 320 319 318 316 316 315 315 314 313 311 312 316 315 315 313 314 322 326 327 326
316 324 332 333 337 340 340 338 337 335 332 328 332 329 330 330 331 332 334 329 330 328 327 326 325 322 323 321 320 320 320 318 316 316 316 316 315 315 316 320 323 324 321 319 316 326 329 327 328
324 329 331 336 341 341 342 337 336 336 331 329 329 330 329 329 330 333 328 330 330 327 325 326 324 323 323 322 320 320 319 317 316 316 316 316 316 316 323 326 327 327 330 324 322 321 331 331 331
329 333 332 334 335 337 339 339 338 336 332 330 329 331 330 330 328 326 328 329 331 327 325 325 324 322 323 322 322 321 319 319 319 317 317 316 317 323 331 330 329 328 328 327 330 329 325 321 325
332 331 332 330 331 332 333 332 332 333 331 330 330 330 331 329 329 330 333 335 334 333 326 326 323 322 323 323 322 322 321 320 319 320 317 317 321 332 331 328 327 327 328 330 330 329 329 326 325
331 332 330 329 330 331 330 330 331 331 331 331 330 331 330 330 330 330 332 334 335 333 332 326 323 322 324 324 324 323 322 321 320 321 319 317 327 328 323 323 324 324 324 324 324 327 327 328 326
328 330 332 331 332 330 330 329 329 330 331 330 329 330 331 330 330 330 333 334 335 335 333 333 326 323 323 324 325 324 323 321 320 322 321 318 320 322 323 323 323 321 320 320 320 322 326 327 325
328 331 331 331 331 331 330 330 330 329 329 330 329 328 329 328 329 331 333 333 334 334 335 333 335 337 328 335 331 325 324 322 321 322 321 319 325 331 331 329 322 320 317 317 318 319 320 320 321
330 332 332 331 331 331 330 330 330 330 330 330 329 329 329 329 329 330 331 331 334 334 334 334 337 337 337 335 338 328 327 326 329 332 332 324 331 332 328 325 321 319 321 319 322 325 326 328 329
329 332 331 331 330 330 330 330 329 329 331 329 330 329 329 328 328 330 331 330 330 333 334 335 336 333 337 336 338 338 335 335 335 332 326 329 332 332 331 331 330 330 329 327 327 329 329 329 328
330 330 330 330 330 330 330 329 329 329 329 329 328 328 328 328 328 330 331 330 330 331 333 335 335 324 325 336 337 336 335 335 334 333 322 325 332 333 332 331 330 331 329 328 328 329 330 329 329
328 329 329 329 329 329 329 329 330 329 328 328 328 328 328 328 328 328 330 330 330 331 332 335 336 327 324 329 338 335 334 333 332 330 330 328 332 333 333 332 332 331 331 328 328 329 329 329 330
324 325 326 327 328 328 330 329 329 328 328 327 328 327 327 326 327 328 329 329 330 328 332 335 337 332 324 326 332 328 328 331 326 329 331 329 329 332 333 332 331 329 330 330 329 328 329 327 328
324 326 326 326 327 328 327 329 329 327 327 327 326 326 326 326 327 328 328 329 330 330 332 335 337 332 324 325 327 328 328 326 329 330 329 326 328 332 331 329 328 327 327 328 326 327 327 327 327
325 327 328 328 328 328 328 329 328 327 326 326 326 325 325 325 325 327 328 329 329 325 330 332 334 332 327 325 327 330 330 328 330 331 332 332 330 330 329 328 329 328 327 327 327 328 327 327 326
324 326 328 328 328 326 326 328 328 326 326 326 325 325 324 325 324 326 327 328 327 326 325 325 325 328 327 326 328 330 327 327 330 331 331 333 332 331 329 328 328 327 327 326 327 327 327 327 327
324 325 325 326 327 326 325 326 327 326 326 325 324 324 324 325 324 324 326 329 329 325 325 324 324 324 326 330 331 332 331 330 331 331 332 333 333 331 328 327 327 327 326 325 327 326 326 327 327
323 325 326 326 326 325 326 326 326 326 325 324 324 324 324 325 325 327 329 327 326 326 324 324 323 323 324 328 332 331 330 330 330 331 333 332 333 329 328 328 328 327 325 324 323 324 325 326 326
322 323 325 325 325 325 325 325 325 325 325 324 324 323 324 326 325 328 330 328 324 325 324 324 324 323 326 332 329 330 330 330 330 332 333 332 331 329 328 327 326 326 325 324 324 324 325 325 325
320 322 323 323 324 324 323 323 323 324 323 322 323 324 326 325 324 328 331 329 326 325 325 327 333 330 332 330 330 330 328 329 330 331 331 332 330 329 327 326 325 325 323 322 322 322 324 325 326
321 320 320 321 322 323 323 324 324 324 325 325 324 324 325 325 325 329 331 330 330 327 326 333 331 331 326 324 330 329 328 329 330 329 330 330 329 329 328 326 326 323 323 323 323 324 324 324 325
320 319 320 320 321 322 322 322 323 324 325 325 326 325 326 324 328 329 332 331 331 331 333 333 330 325 324 328 330 327 330 330 330 329 328 330 328 326 327 326 326 326 326 324 325 325 325 326 325
319 319 320 320 321 322 322 323 324 325 326 326 326 324 325 327 330 331 331 331 331 332 333 332 329 330 328 326 330 331 332 331 329 329 329 330 327 327 327 326 326 326 325 326 325 325 325 325 325
318 320 322 323 323 323 322 322 323 326 326 325 325 327 329 331 331 330 331 331 331 332 332 332 332 332 330 330 331 332 333 330 330 329 329 329 327 326 325 326 325 324 324 326 327 325 327 326 324
319 321 321 322 322 323 323 324 325 324 325 325 325 323 327 331 331 331 331 331 331 331 331 330 332 331 330 330 332 332 331 329 329 326 328 328 327 325 325 323 326 325 327 327 324 323 326 326 326
320 323 322 320 322 324 324 324 326 327 328 327 327 328 329 332 332 331 331 331 331 331 331 331 331 330 329 330 332 332 331 329 327 322 324 327 327 325 326 326 327 327 327 324 324 327 326 326 326
321 321 321 321 322 322 321 322 324 327 327 327 327 329 331 332 331 331 331 331 331 331 331 331 330 328 329 331 331 332 331 329 325 325 326 327 326 325 325 326 327 327 327 327 326 325 327 327 328
320 322 322 322 321 322 322 321 325 325 326 330 331 331 332 331 331 330 331 331 331 332 331 331 328 328 329 330 331 332 331 330 328 329 327 326 325 325 325 325 327 327 328 327 325 327 328 330 328
319 320 322 321 322 320 320 323 326 328 329 330 330 331 332 331 330 330 330 331 331 331 331 328 328 327 328 330 331 331 331 330 326 329 328 325 326 325 325 326 326 326 328 329 329 329 328 329 328
Wind_Speed
13 16 13 5 6 6 10 4 6 6 5 4 6 8 7 10 11 7 10 6 9 13 18 20 16 13 12 12 12 10 8 6 6 8 9 9 10 11 12 11 11 12 12 11 11 11 11 9 7
17 18 7 4 7 9 9 9 8 1 6 9 11 13 13 14 7 9 8 9 12 14 18 19 18 16 14 12 11 10 9 7 6 8 9 10 10 11 11 12 12 12 12 12 12 11 10 10 9
18 11 9 5 9 11 5 8 4 3 5 2 4 4 6 4 3 4 7 8 15 17 17 18 19 17 17 13 11 10 9 7 6 8 10 11 11 11 12 12 12 13 12 12 12 11 11 12 11
12 6 8 9 13 11 10 4 3 5 3 1 3 7 5 7 4 4 10 13 15 17 17 19 20 19 19 16 12 10 7 5 5 7 10 12 11 12 12 13 15 15 16 16 15 14 15 14 13
10 8 11 13 17 13 9 15 14 10 6 6 3 4 6 6 8 14 12 12 17 19 19 20 22 20 20 18 15 13 10 7 5 7 10 12 11 11 13 16 18 19 20 20 19 17 18 17 18
12 9 11 14 18 11 11 14 15 13 11 8 8 6 10 4 9 9 7 12 16 19 21 21 22 20 20 20 18 17 15 12 10 9 10 12 11 13 17 19 20 20 21 21 21 21 20 19 19
16 10 16 17 17 14 11 8 13 13 8 10 5 11 8 3 12 9 9 10 17 18 21 21 22 22 22 22 21 21 19 15 14 13 11 12 12 16 19 20 21 23 24 25 24 23 22 22 21
17 11 19 16 16 16 5 6 5 8 10 5 7 7 6 12 13 11 10 11 17 20 21 22 23 24 25 25 25 23 20 18 16 14 13 14 14 16 18 19 19 19 20 22 23 24 26 26 24
16 11 15 20 20 17 14 11 3 5 13 16 13 17 17 17 14 13 13 14 17 23 25 24 23 23 25 22 22 24 22 21 19 17 17 14 12 12 13 15 18 20 16 16 16 16 18 20 22
20 15 24 21 22 19 25 16 17 12 18 24 24 23 15 17 18 18 18 18 18 26 27 26 25 24 23 21 20 23 23 22 18 15 13 13 12 13 14 16 17 16 16 15 12 12 13 12 12
24 27 24 27 31 28 24 26 27 22 19 27 24 28 25 24 22 21 22 20 21 23 27 29 28 27 25 23 22 18 18 16 15 15 14 12 13 12 11 11 10 11 14 10 11 11 9 11 13
29 35 31 32 35 29 22 31 28 28 28 31 28 29 30 27 25 22 23 22 20 19 27 29 29 33 31 23 22 19 18 16 14 13 14 14 12 13 13 12 11 12 11 11 10 10 10 11 13
34 28 32 30 30 32 30 31 30 35 30 35 29 27 26 25 27 25 23 23 21 21 23 29 30 34 33 32 22 21 20 18 14 13 13 14 13 14 14 14 13 14 13 13 12 12 11 10 10
32 32 37 34 30 28 25 30 34 37 25 37 30 31 27 26 25 23 22 22 20 22 22 27 31 35 35 34 30 29 25 17 17 12 12 15 15 14 15 17 18 16 17 15 14 12 12 11 11
30 27 28 24 28 27 25 31 30 37 29 33 29 26 24 23 22 22 21 23 21 20 18 28 30 34 37 34 33 30 23 21 14 12 15 16 17 15 18 20 20 19 19 19 17 14 13 12 11
22 27 27 25 21 20 19 36 27 25 28 25 22 23 23 24 24 24 22 21 24 23 20 23 27 29 37 36 33 28 20 17 13 12 12 13 15 17 20 21 21 20 19 19 21 15 13 12 12
25 26 31 30 27 26 26 39 29 34 21 20 21 25 25 26 27 29 26 24 22 24 23 24 26 27 34 33 31 27 25 18 13 12 12 12 14 17 19 19 19 19 18 19 18 15 14 12 13
26 26 27 30 23 22 26 31 27 31 31 27 29 27 29 27 30 31 25 22 22 24 24 23 21 25 29 29 30 21 17 14 12 11 11 13 14 16 18 18 17 16 17 17 15 14 14 13 12
25 25 30 24 24 24 24 29 29 32 24 28 32 28 30 29 31 26 23 18 18 18 22 20 21 26 30 30 25 21 17 12 10 10 12 13 14 15 16 15 15 15 16 16 16 15 14 14 12
27 29 29 24 24 20 20 26 26 24 26 32 35 31 32 27 26 20 16 16 17 18 18 18 21 26 30 25 22 16 13 10 9 9 11 12 12 13 14 14 14 14 12 13 14 14 13 13 14
29 29 26 25 22 19 22 25 27 27 35 37 32 29 26 26 29 21 13 11 13 15 16 17 21 26 26 23 20 15 10 8 5 8 8 9 9 10 10 10 8 9 11 11 13 14 12 11 13
30 25 23 22 19 19 18 21 23 21 25 22 29 30 31 29 22 17 12 10 11 12 15 20 24 27 26 21 15 13 8 7 7 7 7 6 7 6 5 6 6 6 7 8 6 6 8 12 11
26 15 20 20 19 20 23 14 22 23 24 23 22 29 29 25 15 12 12 12 13 16 21 23 27 27 23 19 13 9 7 6 5 4 5 7 6 4 3 5 5 5 4 4 3 5 7 8 8
22 14 18 15 14 16 21 20 21 19 22 21 14 13 11 11 7 9 12 15 17 21 24 27 27 22 19 16 12 10 7 6 4 4 5 6 7 5 5 6 5 5 4 3 4 5 6 6 6
24 21 10 11 12 14 15 12 20 17 20 20 15 5 6 4 10 15 18 19 23 27 27 25 23 20 17 14 12 9 6 5 2 2 3 5 5 7 7 7 6 3 4 4 5 5 7 6 5
29 25 12 15 12 13 7 9 10 11 16 15 14 15 5 5 12 17 21 25 27 27 26 23 21 19 16 14 12 9 6 3 2 2 4 4 7 8 8 7 5 4 3 3 3 6 7 7 6
31 25 23 14 3 6 7 9 14 20 18 15 9 6 6 11 16 21 23 25 27 26 24 22 20 17 15 14 12 9 6 6 4 3 7 7 9 8 7 5 3 2 2 2 3 6 8 7 5
26 24 20 13 14 15 7 10 10 13 10 7 10 7 12 17 19 23 25 26 25 24 22 20 18 16 15 14 12 8 6 6 3 4 7 9 9 9 7 4 2 1 1 2 5 4 5 5 5
17 22 19 15 10 8 4 4 11 14 11 3 5 10 18 22 23 24 26 25 24 22 21 20 16 16 15 13 11 9 6 6 5 5 7 8 9 9 6 5 3 2 2 3 2 4 4 5 7
26 18 24 13 16 13 7 7 5 5 6 4 4 13 20 23 25 26 26 26 24 22 21 18 16 15 15 12 10 7 5 5 4 6 7 8 8 8 6 5 4 3 2 1 2 4 8 9 7
Wind_Direction
163 156 154 162 234 232 240 220 273 221 212 191 264 233 242 309 300 336 317 285 196 190 190 191 188 186 190 200 208 216 224 239 261 275 279 278 275 276 273 263 262 260 267 269 270 276 287 278 248
162 155 178 225 253 228 195 208 199 34 326 293 263 241 252 263 287 283 289 274 196 188 189 195 188 187 190 191 203 213 228 245 270 289 293 289 287 282 273 263 262 252 262 275 275 269 273 286 287
162 171 229 229 240 252 252 173 128 330 327 314 243 266 302 275 258 284 281 226 201 188 192 196 191 190 200 200 203 208 224 248 282 299 305 298 293 285 278 267 256 261 253 264 266 256 265 275 280
162 194 242 243 236 241 261 168 234 301 176 264 323 268 261 267 280 277 292 222 212 197 194 199 194 196 202 204 207 210 218 240 293 309 305 298 292 280 267 266 268 268 261 270 270 251 253 258 259
184 230 248 239 249 255 254 265 282 277 263 248 282 300 283 295 310 308 285 245 216 204 200 201 199 199 206 207 213 214 214 229 269 301 307 301 291 280 274 272 272 270 269 268 262 254 256 256 257
208 256 239 242 247 231 258 271 263 259 263 240 260 286 283 355 357 331 302 232 213 207 207 206 201 199 207 212 218 223 226 235 250 282 303 299 290 276 273 270 267 267 264 264 263 257 256 253 254
236 223 256 264 271 273 283 275 258 265 247 248 298 286 283 332 346 329 316 250 221 217 211 211 210 205 209 217 223 230 232 239 248 264 290 295 279 267 269 271 271 270 268 265 260 259 258 252 255
232 251 257 261 263 273 293 258 274 243 268 302 293 267 266 328 326 315 298 278 241 224 218 212 214 213 212 216 222 230 235 241 247 261 280 289 283 276 277 277 283 275 273 268 263 258 254 255 258
235 235 248 250 254 262 239 258 171 266 269 275 268 277 292 293 298 293 282 270 249 233 221 215 213 212 214 212 224 227 232 240 247 256 271 283 275 264 273 277 275 279 277 272 266 262 260 259 256
224 230 244 254 270 273 280 245 280 274 277 278 281 280 279 286 287 286 276 271 260 241 229 219 214 210 207 207 214 225 228 235 242 243 253 279 258 262 265 271 283 273 280 275 267 263 258 256 261
233 245 254 249 257 260 270 273 273 278 276 275 294 297 296 298 291 281 271 275 268 255 236 226 218 216 208 206 210 211 216 221 232 242 258 262 258 268 273 271 278 289 288 277 279 277 279 260 253
243 252 251 262 259 258 259 271 277 272 271 281 288 289 290 288 289 281 271 275 275 260 241 226 218 224 220 211 211 209 213 219 228 246 265 263 263 269 268 259 265 267 269 257 257 258 256 258 252
243 249 263 251 261 267 270 267 272 275 279 279 284 286 289 288 285 280 276 273 271 257 240 225 217 224 227 216 211 210 211 221 230 243 255 259 252 262 261 256 257 252 252 258 257 258 261 261 255
247 253 257 262 257 261 263 268 268 267 273 279 281 284 285 287 284 276 272 270 270 267 242 223 221 222 227 225 220 225 223 222 242 241 244 261 261 261 257 259 256 254 251 246 251 252 255 259 252
249 253 258 251 253 254 262 268 256 266 266 269 274 279 284 284 281 275 272 272 267 266 242 225 217 224 228 226 225 227 225 228 233 239 254 266 269 264 260 266 265 264 259 251 249 251 246 249 249
248 240 249 236 230 240 230 262 263 276 275 267 267 277 283 284 282 279 270 270 272 270 243 225 220 225 225 227 227 220 212 225 228 236 250 264 268 267 271 272 268 264 260 260 255 244 238 240 241
235 239 240 245 243 242 233 257 259 263 262 264 267 277 282 283 285 275 275 272 266 259 252 237 234 221 224 222 221 217 222 221 225 237 254 266 269 268 272 271 265 261 260 256 243 239 234 232 235
228 229 243 258 243 237 244 251 261 264 265 277 274 277 280 280 282 283 277 269 259 248 239 233 225 219 216 210 209 202 212 214 225 243 256 263 273 272 271 268 267 261 256 250 236 231 229 231 237
248 253 249 246 244 248 250 258 269 275 280 272 271 272 274 280 284 280 272 266 240 233 233 221 216 209 204 199 188 195 204 213 229 247 258 267 276 272 269 266 263 254 249 242 232 231 229 228 225
233 240 248 255 261 269 271 269 272 277 273 271 273 268 270 271 278 274 273 251 228 226 220 209 202 199 191 185 179 189 195 214 227 245 256 267 269 267 265 267 259 253 237 233 236 235 231 229 216
225 236 245 258 268 254 252 269 270 263 261 261 262 261 261 264 278 276 260 231 222 210 202 186 182 179 168 171 175 176 185 204 242 258 263 270 263 258 266 264 251 232 221 237 241 242 233 223 210
231 226 246 252 257 259 255 276 275 280 278 269 267 264 263 266 263 257 233 209 194 187 175 169 171 168 175 175 169 172 189 209 226 236 249 259 247 244 246 234 207 220 229 240 247 232 206 204 193
231 232 237 241 254 266 260 262 274 261 263 259 258 260 255 255 247 244 200 178 164 158 155 158 161 168 174 167 163 165 175 213 221 243 255 242 233 211 183 183 196 218 219 233 181 184 179 186 188
219 217 226 236 246 250 251 252 271 271 267 271 270 257 242 199 200 171 160 154 151 146 148 152 160 165 166 165 159 160 175 185 216 250 258 244 237 173 177 173 185 201 188 162 173 179 190 199 190
200 196 201 217 220 247 249 244 246 282 286 276 271 254 136 165 164 152 150 149 146 147 149 153 155 155 159 159 160 164 165 175 215 242 241 203 202 152 174 169 175 181 149 161 178 189 205 214 218
192 187 205 218 232 245 201 246 251 266 277 284 266 244 253 162 142 143 147 145 147 148 151 152 153 155 160 163 163 164 164 173 176 172 165 153 151 157 161 161 172 140 133 152 173 200 198 207 213
187 210 215 243 181 264 254 243 267 261 263 256 262 216 191 159 146 142 144 146 147 150 150 151 154 158 162 164 165 164 157 160 170 129 132 140 155 164 164 174 162 170 155 216 198 191 193 190 194
195 197 201 216 227 241 249 255 262 269 315 214 237 212 162 149 143 144 145 148 149 148 150 151 154 159 163 165 166 169 162 157 131 120 148 152 166 166 171 178 170 194 194 219 218 192 199 185 176
191 196 207 205 238 202 261 249 256 250 282 312 167 154 154 149 147 148 149 150 148 149 152 153 156 162 165 167 169 172 165 161 151 152 154 166 173 176 172 172 176 177 200 207 201 203 176 173 175
203 192 194 200 194 235 270 262 244 337 309 317 218 149 151 148 150 152 152 152 151 154 156 158 161 166 168 167 169 176 172 181 173 158 156 168 176 172 172 161 166 167 185 164 193 100 155 154 163